Weather History for KESF - July, 2013

Change the Weather History Date:

Saturday, July 20, 2013

  Actual Average Record
Temperature  
Mean Temperature 81 °F -  
Max Temperature 93 °F 92 °F 102 °F (2000)
Min Temperature 69 °F 72 °F 64 °F (2004)
Cooling Degree Days 16    
Growing Degree Days 31 (Base 50)    
Moisture  
Dew Point 69 °F    
Average Humidity 79    
Maximum Humidity 94    
Minimum Humidity 39    
Precipitation  
Precipitation 0.01 in - - ()
Sea Level Pressure  
Sea Level Pressure 29.97 in    
Wind  
Wind Speed 1 mph (SSW)    
Max Wind Speed 9 mph    
Max Gust Speed 17 mph    
Visibility 6 miles    
Events      
Averages and records for this station are not official NWS values.
T = Trace of Precipitation, MM = Missing Value Source: NWS Daily Summary

Daily Weather History Graph

Daily Weather History Graph

Search for Another Location

Airport or City:

Trip Planner

Search our weather history database for the weather conditions in past years. The results will help you decide how hot, cold, wet, or windy it might be!

Date:

Astronomy

Jul. 20, 2013 Rise Set
Actual Time 6:18 AM CDT 8:12 PM CDT
Civil Twilight 5:51 AM CDT 8:39 PM CDT
Nautical Twilight 5:18 AM CDT 9:12 PM CDT
Astronomical Twilight 4:43 AM CDT 9:47 PM CDT
Moon 6:17 PM CDT (7/20) 3:58 AM CDT (7/20)
Length of Visible Light 14h 48m
Length of Day
13h 54m
Waxing Gibbous, 94% of the Moon is Illuminated
Jul 20
Waxing Gibbous
Jul 22
Full
Jul 29
Last Quarter
Aug 6
New
Aug 14
First Quarter

Hourly Weather History & Observations

Time (CDT) Temp. Heat Index Dew Point Humidity Pressure Visibility Wind Dir Wind Speed Gust Speed Precip Events Conditions
12:53 AM 72.0 °F - 70.0 °F 93% 29.98 in 5.0 mi Calm Calm - N/A   Clear
1:53 AM 72.0 °F - 70.0 °F 93% 29.97 in 2.5 mi Calm Calm - N/A   Clear
1:57 AM 71.6 °F - 69.8 °F 94% 29.98 in 1.5 mi Calm Calm - N/A   Partly Cloudy
2:08 AM 71.6 °F - 69.8 °F 94% 29.98 in 3.0 mi West 3.5 mph - N/A   Partly Cloudy
2:53 AM 71.1 °F - 69.1 °F 93% 29.99 in 7.0 mi West 4.6 mph - N/A   Clear
3:44 AM 71.6 °F - 69.8 °F 94% 29.98 in 2.5 mi Calm Calm - N/A   Partly Cloudy
3:53 AM 71.1 °F - 69.1 °F 93% 29.98 in 1.8 mi Calm Calm - N/A   Partly Cloudy
3:56 AM 71.6 °F - 69.8 °F 94% 29.98 in 3.0 mi Calm Calm - N/A   Partly Cloudy
4:33 AM 71.6 °F - 68.0 °F 88% 29.98 in 1.8 mi Calm Calm - N/A   Partly Cloudy
4:37 AM 69.8 °F - 68.0 °F 94% 29.98 in 0.8 mi Calm Calm - N/A   Mist
4:50 AM 69.8 °F - 68.0 °F 94% 29.99 in 1.0 mi Calm Calm - N/A   Mist
4:53 AM 70.0 °F - 68.0 °F 93% 29.98 in 0.8 mi Calm Calm - N/A   Mist
5:03 AM 69.8 °F - 68.0 °F 94% 29.99 in 2.0 mi Calm Calm - 0.01 in   Scattered Clouds
5:12 AM 69.8 °F - 68.0 °F 94% 29.99 in 4.0 mi Calm Calm - 0.01 in   Scattered Clouds
5:29 AM 69.8 °F - 68.0 °F 94% 29.99 in 1.8 mi Calm Calm - 0.01 in   Clear
5:44 AM 69.8 °F - 68.0 °F 94% 29.99 in 3.0 mi Calm Calm - 0.01 in   Clear
5:53 AM 70.0 °F - 68.0 °F 93% 29.99 in 2.5 mi Calm Calm - 0.01 in   Clear
6:08 AM 69.8 °F - 66.2 °F 88% 29.99 in 1.5 mi Calm Calm - N/A   Partly Cloudy
6:13 AM 69.8 °F - 66.2 °F 88% 29.99 in 0.8 mi Calm Calm - N/A   Mist
6:27 AM 69.8 °F - 66.2 °F 88% 29.99 in 1.2 mi Calm Calm - N/A   Scattered Clouds
6:31 AM 69.8 °F - 66.2 °F 88% 30.00 in 3.0 mi Calm Calm - N/A   Scattered Clouds
6:53 AM 70.0 °F - 68.0 °F 93% 30.00 in 6.0 mi Calm Calm - N/A   Clear
7:53 AM 75.9 °F - 71.1 °F 85% 30.00 in 10.0 mi Calm Calm - N/A   Clear
8:53 AM 79.0 °F - 72.0 °F 79% 29.99 in 10.0 mi Calm Calm - N/A   Clear
9:53 AM 82.0 °F 85.9 °F 70.0 °F 67% 29.99 in 10.0 mi Calm Calm - N/A   Clear
10:53 AM 86.0 °F 90.7 °F 70.0 °F 59% 29.99 in 10.0 mi SSW 3.5 mph - N/A   Clear
11:53 AM 89.1 °F 93.7 °F 69.1 °F 52% 29.99 in 10.0 mi Calm Calm - N/A   Clear
12:53 PM 91.0 °F 94.3 °F 66.9 °F 45% 29.98 in 10.0 mi Variable 4.6 mph - N/A   Clear
1:53 PM 91.9 °F 95.9 °F 68.0 °F 45% 29.96 in 10.0 mi Variable 5.8 mph - N/A   Clear
2:53 PM 93.9 °F 97.5 °F 66.9 °F 41% 29.94 in 10.0 mi Calm Calm - N/A   Clear
3:53 PM 93.0 °F 95.0 °F 64.9 °F 39% 29.92 in 10.0 mi Variable 4.6 mph - N/A   Clear
4:53 PM 91.9 °F 95.9 °F 68.0 °F 45% 29.91 in 10.0 mi SSW 6.9 mph - N/A   Partly Cloudy
5:53 PM 91.9 °F 94.5 °F 66.0 °F 42% 29.89 in 10.0 mi SSW 9.2 mph 17.3 mph N/A   Clear
6:53 PM 88.0 °F 91.4 °F 68.0 °F 51% 29.90 in 10.0 mi South 9.2 mph - N/A   Clear
7:53 PM 82.9 °F 87.0 °F 70.0 °F 65% 29.91 in 10.0 mi SSW 4.6 mph - N/A   Clear
8:53 PM 78.1 °F - 72.0 °F 81% 29.92 in 10.0 mi Calm Calm - N/A   Clear
9:53 PM 77.0 °F - 71.1 °F 82% 29.94 in 10.0 mi SW 3.5 mph - N/A   Clear
10:53 PM 75.0 °F - 71.1 °F 87% 29.97 in 10.0 mi ESE 4.6 mph - N/A   Clear
11:53 PM 73.9 °F - 71.1 °F 91% 29.98 in 9.0 mi Calm Calm - N/A   Clear